Preview of NWS' New Version of Forecast
This preview is not operational and should not be used for support decisions.

Regional Weather Roundup (RWR)

Issued by National Weather Service (NWS)

                            
000
ASUS46 KSEW 191310
RWRWA 

WASHINGTON REGIONAL WEATHER ROUNDUP
NATIONAL WEATHER SERVICE SEATTLE WA
600 AM PDT MON AUG 19 2019

NOTE:"FAIR" INDICATES FEW OR NO CLOUDS BELOW 12,000 FEET WITH NO 
SIGNIFICANT WEATHER AND/OR OBSTRUCTIONS TO VISIBILITY.

WAZ507-509-555>559-191400-
SEATTLE, TACOMA, EVERETT, AND VICINITY
  
CITY           SKY/WX    TMP DP  RH WIND       PRES   REMARKS
EVERETT        CLOUDY    60  55  83 N5        29.98R                  
BOEING FIELD   CLOUDY    62  54  74 S5        29.97R                  
RENTON         CLOUDY    63  55  75 S3        29.97R                  
SEATAC AIRPORT CLOUDY    60  54  80 SW5       29.98R                  
JBLM-MCCHORD   CLOUDY    56  56 100 S3        29.98R                  
PUYALLUP       CLOUDY    57  55  94 CALM      29.98R                  
BREMERTON      CLOUDY    57  55  93 CALM      29.97R                  
JBLM-FT LEWIS  CLOUDY    56  56 100 SE7       29.97R                  
TACOMA NARROWS CLOUDY    57  54  89 S5        29.98R                  
$$
 
WAZ001-503-506-510-514-515-191400-
NORTH INTERIOR
  
CITY           SKY/WX    TMP DP  RH WIND       PRES   REMARKS
BELLINGHAM     CLOUDY    62  53  72 S9        29.94R                  
FRIDAY HARBOR  CLEAR     55  53  93 W6        29.95R                  
EASTSOUND      CLEAR     57  55  94 S6        29.93R                  
PORT ANGELES   CLOUDY    56  53  90 CALM      29.96R                  
EDIZ HOOK      CLOUDY    56  54  91 W7        29.96R                  
PORT TOWNSEND  CLOUDY    59  55  88 CALM      29.96R                  
NAS WHIDBEY    MOCLDY    62  55  77 S8        29.99R                  
ARLINGTON      CLOUDY    59  54  83 CALM      29.97R                  
BURLINGTON     CLOUDY    61  57  88 S5        29.96R                  
$$
 
WAZ020-022-039-040-504-511-512-191400-
SOUTHWEST INTERIOR
  
CITY           SKY/WX    TMP DP  RH WIND       PRES   REMARKS
SHELTON        CLOUDY    59  54  83 NW3       29.94R                  
OLYMPIA        MOCLDY    50  49  96 CALM      29.97R                  
CHEHALIS       CLOUDY    55  55 100 CALM      29.99R                  
KELSO          CLOUDY    59  55  87 CALM      29.99R FOG              
VANCOUVER      CLOUDY    60  53  77 CALM      29.98R                  
SCAPPOOSE, OR  CLEAR     58  53  84 NW3       29.97R                  
PORTLAND, OR   MOCLDY    61  53  75 CALM      29.98R                  
$$
 
WAZ021-516-517-191400-
WASHINGTON COAST
  
CITY           SKY/WX    TMP DP  RH WIND       PRES   REMARKS
FORKS          CLOUDY    58  56  93 CALM      29.96R                  
HOQUIAM        CLOUDY    60  60 100 NW3       29.97R                  
ASTORIA, OR    LGT RAIN  57  56  96 SW3       29.98R FOG              
$$
 
WAZ019-023-024-040-567>569-191400-
CASCADE MOUNTAINS AND COLUMBIA GORGE
  
CITY           SKY/WX    TMP DP  RH WIND       PRES   REMARKS
STAMPEDE PASS  FOG       50  48  93 VRB5      30.00R VSB 1            
TROUTDALE, OR  CLOUDY    61  54  77 CALM      29.97R                  
HOOD RIVER, OR SUNNY     63  54  72 NW8       29.91R                  
THE DALLES, OR CLEAR     62  54  74 S3        29.86R                  
$$

WAZ026-027-041>044-520-521-191400-
EAST SLOPES
  
CITY           SKY/WX    TMP DP  RH WIND       PRES   REMARKS
OMAK           CLEAR     59  41  51 CALM      29.81R                  
WENATCHEE      CLEAR     64  47  53 NW7       29.82R                  
ELLENSBURG     CLEAR     62  49  62 NW18      29.88R                  
YAKIMA         CLEAR     58  50  75 VRB5      29.84R                  
SUNNYSIDE ARPT SUNNY     53  51  95 CALM      29.83R                  
YAKIMA TC      FAIR      61  48  61 E7        29.85R                  
$$

WAZ028-034-035-191400-
COLUMBIA BASIN
  
CITY           SKY/WX    TMP DP  RH WIND       PRES   REMARKS
EPHRATA        CLEAR     66  44  45 NW8       29.80R                  
MOSES LAKE     CLEAR     58  50  75 SE3       29.81R                  
PASCO          CLEAR     67  52  58 S6        29.82R                  
RICHLAND ARPT  SUNNY     63  56  78 CALM      29.82R                  
HERMISTON, OR  CLEAR     68  46  45 SW9       29.83R                  
$$

WAZ036>038-191400-
NORTHEAST WASHINGTON
  
CITY           SKY/WX    TMP DP  RH WIND       PRES   REMARKS
SPOKANE GEIGER PTCLDY    58  39  49 S9        29.85R                  
SPOKANE FELTS  CLEAR     59  45  59 NE5       29.85R                  
FAIRCHILD AFB  CLEAR     57  41  56 S7        29.85R                  
COEURDALENE,ID CLEAR     57  49  74 S3        29.87R                  
DEER PARK      CLEAR     47  42  83 MISG      29.85R                  
$$

WAZ029>033-191400-
SOUTHEAST WASHINGTON
  
CITY           SKY/WX    TMP DP  RH WIND       PRES   REMARKS
PULLMAN        CLEAR     50  38  63 CALM      29.90R                  
LEWISTON, ID   CLEAR     61  40  45 CALM      29.86R                  
WALLA WALLA    CLEAR     68  42  38 S12       29.86R                  
PENDLETON, OR  CLEAR     58  44  60 SE5       29.88R                  
$$